Regional Weather Roundup
Issued by NWS

Home | Current Version | Previous Version | Text Only | Print | Product List | Glossary Off
Versions: 1 2 3 4 5 6 7 8 9 10 11 12 13 14 15 16 17 18 19 20 21 22 23 24 25 26 27 28 29 30 31 32 33 34 35 36 37 38 39 40 41 42 43 44 45 46 47 48 49 50

000
ASUS45 KABQ 300310
RWRNM
NEW MEXICO REGIONAL WEATHER ROUNDUP
NATIONAL WEATHER SERVICE ALBUQUERQUE NM
900 PM MDT MON MAY 29 2017

NOTE: "FAIR" MEANS FEW OR NO CLOUDS BELOW 12,000 FEET AGL WITH NO
       SIGNIFICANT WEATHER OR OBSTRUCTIONS TO VISION.

      THIS PRODUCT IS RELEASED AS TWO VERSIONS.  ONE VERSION NEAR
      THE TOP OF THE HOUR CONTAINING PRELIMINARY DATA FROM ALBUQUERQUE
      AND OTHER STATIONS.  A FINAL VERSION WITH ADDITIONAL DATA IS
      ISSUED ABOUT 10 MINUTES AFTER THE HOUR.

NMZ501-503-504-510>518-300400-
NORTHWEST PLATEAU/NORTHCENTRAL MOUNTAINS

CITY           SKY/WX    TMP DP  RH WIND       PRES   REMARKS
FARMINGTON     FAIR      66  12  12 W7        30.06R
LOS ALAMOS     FAIR      53  39  59 S10       30.27S
SANTA FE       FAIR      55  44  66 SE12      30.23R
TAOS           FAIR      57  28  33 W7        30.25R
ANGEL FIRE     MOCLDY    47  39  73 S7        30.33R

$$
NMZ402-403-502-505>509-300400-
WESTCENTRAL MOUNTAINS/SOUTHWEST MOUNTAINS

CITY           SKY/WX    TMP DP  RH WIND       PRES   REMARKS
GALLUP         MOCLDY    68  32  26 SE17G24   30.15R
GRANTS         MOCLDY    61  30  30 CALM      30.22F
SILVER CITY    MOCLDY    73  31  22 E7        30.10R

$$
NMZ407-409-411-412-300400-
SOUTHERN DESERTS

CITY           SKY/WX    TMP DP  RH WIND       PRES   REMARKS
DEMING         FAIR      78  32  18 NE12      30.03R
LAS CRUCES     MOCLDY    80  32  17 NE6       30.05R
HOLLOMAN AFB   MOCLDY    76  38  24 E16       30.10F
ALAMOGORDO     FAIR      75  37  25 E12G26    30.09F
T OR C         FAIR      71  36  27 N13       30.10R

$$
NMZ519>523-300400-
CENTRAL VALLEYS/CENTRAL HIGHLANDS

CITY           SKY/WX    TMP DP  RH WIND       PRES   REMARKS
ALBUQUERQUE    FAIR      65  39  38 E13       30.16S
DOUBLE EAGLE   CLEAR     61  39  44 SE9       30.19R
MORIARTY ARPT  FAIR      54  47  76 SW7       30.26R
CLINES CORNERS FAIR      49  43  80 SE9       30.28R
BELEN          FAIR      64  36  36 S8        30.16R
SOCORRO        FAIR      67  35  30 CALM      30.14S

$$
NMZ524>526-539-540-300400-
SOUTHCENTRAL MOUNTAINS

CITY           SKY/WX    TMP DP  RH WIND       PRES   REMARKS
RUIDOSO        LGT RAIN  57  39  51 W12G17    30.32R

$$
NMZ527>531-300400-
NORTHEAST HIGHLANDS/NORTHEAST PLAINS

CITY           SKY/WX    TMP DP  RH WIND       PRES   REMARKS
LAS VEGAS      FAIR      47  43  86 SW10      30.28R
RATON          RAIN      54  41  61 VRB7      30.29R
CLAYTON        FAIR      51  49  92 SW10      30.22R

$$
NMZ532>537-300400-
EASTCENTRAL PLAINS

CITY           SKY/WX    TMP DP  RH WIND       PRES   REMARKS
SANTA ROSA     FAIR      57  49  76 SE13      30.19F
TUCUMCARI      FAIR      58  54  86 SW6       30.16S
CANNON AFB     CLOUDY    63  52  67 NW10      30.19R
CLOVIS AIRPORT MOCLDY    63  46  55 N15       30.18R

$$
NMZ028-029-538-300400-
SOUTHEAST PLAINS

CITY           SKY/WX    TMP DP  RH WIND       PRES   REMARKS
ROSWELL        LGT RAIN  68  46  45 N28G37    30.13R
ARTESIA        FAIR      79  36  21 E3        30.09R
CARLSBAD       FAIR      76  34  21 E7        30.05R
HOBBS          FAIR      72  32  23 E8        30.12R


$$



USA.gov is the U.S. government's official web portal to all federal, state and local government web resources and services.